[[{"header":{"parameterUnit":"m.s-1","parameterCategory":1,"la1":30.2992,"la2":30.254,"lo1":-89.0895,"lo2":-89.0443,"dy":0.0025,"dx":0.0025,"nx":19,"ny":19,"refTime":"2026-04-25T09:00:00:Z","depth":0,"parameterNumber":2,"parameterNumberName":"U-component_of_WINDS"},"data":[0,0,0,1.5123,1.5123,1.5139,1.5139,1.5171,1.5171,0,0,0,0,0,0,0,0,0,0,0,1.5127,1.5127,1.5123,1.5123,1.5139,1.5139,1.5171,1.5171,0,0,0,0,0,0,0,0,0,0,0,1.5127,1.5127,1.5128,1.5123,1.5139,1.5139,1.5171,1.5155,0,0,0,0,0,0,0,0,0,0,1.5137,1.515,1.5127,1.5128,1.5124,1.5139,1.5139,1.5154,1.5156,1.517,0,1.5186,0,1.5179,1.5175,1.5175,0,0,0,1.5117,1.5149,1.5145,1.5128,1.5124,1.5139,1.513,1.5155,1.5157,1.5173,1.5186,1.5187,1.518,1.5175,1.5175,1.528,1.5281,0,0,1.5116,1.5134,1.5143,1.5147,1.5146,1.5129,1.513,1.5156,1.5171,1.5186,1.5187,1.518,1.5175,1.5176,1.5279,1.528,0,0,0,1.5118,1.5134,1.5129,1.5146,1.5148,1.513,1.5131,1.517,1.5167,1.5188,1.5181,1.5175,1.5176,1.5278,1.5279,1.5336,0,0,0,1.5117,1.5135,1.5129,1.5141,1.5147,1.5159,1.5145,1.5165,1.5168,1.518,1.5175,1.5176,1.5277,1.5279,1.5333,1.536,0,0,0,1.5123,1.5136,1.5141,1.5142,1.5149,1.5158,1.5157,1.5165,1.5164,1.5175,1.5177,1.5277,1.5279,1.533,1.5355,1.5391,0,0,0,1.5135,1.5193,1.5142,1.5204,1.5149,1.5194,1.5156,1.5189,1.5205,1.5176,1.5277,1.5279,1.5329,1.5351,1.5388,1.5425,1.5443,0,0,1.5218,1.5203,1.5238,1.5193,1.5252,1.519,1.5256,1.5254,1.5238,1.5266,1.5269,1.5334,1.5354,1.5391,1.5536,1.555,0,0,0,1.527,1.5295,1.5307,1.5323,1.5322,1.5323,1.5309,1.5307,1.533,1.5257,1.5357,1.5369,1.5389,1.5406,1.5418,1.5433,1.5288,1.5288,1.5288,1.5415,1.5391,1.5446,1.5423,1.5439,1.5422,1.5433,1.5428,1.54,1.5424,1.5432,1.5523,1.5543,1.5552,1.5569,1.545,1.5451,1.5451,1.5451,1.5534,1.5564,1.5524,1.5563,1.5536,1.5569,1.5554,1.5533,1.5558,1.5515,1.5532,1.5487,1.5568,1.5581,1.5455,1.5454,1.5454,1.5453,1.5453,1.5625,1.5635,1.5632,1.5651,1.5669,1.5643,1.5669,1.5644,1.5621,1.5638,1.5643,1.5642,1.5637,1.5642,1.5643,1.5643,1.5643,1.5644,1.5644,1.572,1.5715,1.5739,1.5742,1.5748,1.5752,1.5735,1.574,1.5739,1.5719,1.5718,1.5687,1.5581,1.5554,1.5648,1.5648,1.5647,1.5647,1.5646,1.5847,1.5814,1.5852,1.5858,1.5857,1.5875,1.5843,1.5855,1.5855,1.5868,1.5833,1.5759,1.5742,1.5732,1.571,1.5839,1.5839,1.5839,1.5839,1.5923,1.5912,1.5944,1.5954,1.5962,1.5936,1.5978,1.5964,1.5945,1.5944,1.5921,1.589,1.5881,1.5869,1.5857,1.5835,1.5993,1.5993,1.5993,1.5999,1.5987,1.6028,1.6008,1.6006,1.6004,1.6042,1.6054,1.6026,1.5999,1.5941,1.5935,1.5883,1.5868,1.584,1.5821,1.5781,0,0]},{"header":{"parameterUnit":"m.s-1","parameterCategory":1,"la1":30.2992,"la2":30.254,"lo1":-89.0895,"lo2":-89.0443,"dy":0.0025,"dx":0.0025,"nx":19,"ny":19,"refTime":"2026-04-25T09:00:00:Z","depth":0,"parameterNumber":3,"parameterNumberName":"V-component_of_WINDS"},"data":[0,0,0,3.7228,3.7231,3.7384,3.7385,3.7569,3.757,0,0,0,0,0,0,0,0,0,0,0,3.718,3.7181,3.7228,3.7231,3.7384,3.7385,3.7568,3.757,0,0,0,0,0,0,0,0,0,0,0,3.7179,3.7181,3.7182,3.7232,3.7384,3.7385,3.7568,3.7456,0,0,0,0,0,0,0,0,0,0,3.7309,3.7263,3.718,3.7182,3.7233,3.7384,3.7385,3.7451,3.7463,3.7496,0,3.7528,0,3.7553,3.7582,3.7583,0,0,0,3.7232,3.7253,3.7297,3.7183,3.7234,3.7383,3.7315,3.7458,3.7471,3.7512,3.7531,3.7538,3.7556,3.7583,3.7584,3.7781,3.7782,0,0,3.7224,3.7205,3.7287,3.7306,3.7286,3.731,3.732,3.7466,3.7484,3.7532,3.7543,3.7559,3.7585,3.7586,3.778,3.7781,0,0,0,3.7199,3.7199,3.724,3.7298,3.7327,3.7315,3.7326,3.7477,3.7492,3.7545,3.7561,3.7586,3.7588,3.7779,3.778,3.7807,0,0,0,3.7194,3.7185,3.7236,3.7226,3.7324,3.7405,3.7334,3.7482,3.7499,3.756,3.7586,3.759,3.7778,3.778,3.7804,3.7823,0,0,0,3.7171,3.7182,3.7204,3.7224,3.729,3.7403,3.7426,3.7486,3.7509,3.7583,3.759,3.7778,3.778,3.7802,3.7819,3.787,0,0,0,3.7139,3.7223,3.7204,3.7303,3.7289,3.7419,3.7426,3.7523,3.7589,3.7587,3.7778,3.778,3.7801,3.7817,3.7867,3.7911,3.7927,0,0,3.7235,3.7234,3.7294,3.7281,3.7411,3.7397,3.7529,3.7606,3.7628,3.7728,3.7733,3.7805,3.7819,3.7869,3.8022,3.8035,0,0,0,3.7317,3.736,3.7399,3.7463,3.7526,3.758,3.7639,3.7667,3.7753,3.7677,3.7837,3.7846,3.7876,3.7898,3.7909,3.7936,3.7789,3.7789,3.7789,3.7425,3.7452,3.7552,3.7597,3.7658,3.7718,3.7769,3.7817,3.7823,3.786,3.7891,3.798,3.8005,3.8013,3.8041,3.7914,3.7915,3.7915,3.7915,3.7567,3.7633,3.764,3.7741,3.7767,3.785,3.7909,3.7911,3.799,3.796,3.7988,3.7954,3.8027,3.8052,3.7917,3.7917,3.7916,3.7916,3.7916,3.7642,3.7678,3.7712,3.7808,3.7877,3.7916,3.7993,3.8012,3.803,3.8058,3.8092,3.8092,3.8094,3.8073,3.8073,3.8073,3.8074,3.8074,3.8074,3.7707,3.7745,3.7809,3.7882,3.7925,3.7984,3.8044,3.8086,3.8136,3.8144,3.8144,3.8147,3.8029,3.8,3.8079,3.8078,3.8078,3.8077,3.8077,3.7844,3.7816,3.7915,3.7959,3.8045,3.8112,3.8135,3.8219,3.8255,3.8292,3.8288,3.8197,3.8197,3.8189,3.8165,3.8282,3.8282,3.8282,3.8282,3.7908,3.791,3.8016,3.8084,3.8152,3.8184,3.8291,3.8337,3.8379,3.8402,3.8387,3.8356,3.8347,3.8353,3.834,3.8318,3.8472,3.8472,3.8473,3.7993,3.8003,3.8094,3.8138,3.8206,3.8263,3.8365,3.8439,3.8481,3.8481,3.8421,3.8413,3.8363,3.8346,3.8346,3.8327,3.8287,0,0]}]]